RUK5ZH LIPZ-EGCC

Flight info

Callsign RUK5ZH
Flight time 2h 4m
Altitude 36000
Route ROKIB DCT UNTAD DCT RESIA DCT ELMUR DCT RIPUS DCT DITON DCT HOC DCT LUL DCT RLP DCT ROTSI DCT KOTUN DCT AMAXA DCT VESAN DCT RATUK DCT SOVAT L613 SANDY UN57 WELIN T420 ELVOS
Aircraft B738/M-SDE2E3FGHIRWXY/LB1

Departure

Time 2026-05-06 06:32
Airport Venice Marco Polo Airport (LIPZ)

Arrival

Time 2026-05-06 08:36
Airport Manchester Airport (EGCC)
Time Latitude Longitude Altitude Speed Heading
2026-05-06 05:58 45.50812 12.33923 10 ft 0 kts 223°
2026-05-06 06:20 45.50818 12.33931 9 ft 2 kts 221°
2026-05-06 06:21 45.50832 12.33941 9 ft 2 kts 190°
2026-05-06 06:21 45.50847 12.33941 9 ft 2 kts 166°
2026-05-06 06:21 45.50861 12.33931 9 ft 2 kts 141°
2026-05-06 06:21 45.50867 12.33924 9 ft 1 kts 129°
2026-05-06 06:22 45.50869 12.33921 9 ft 0 kts 132°
2026-05-06 06:25 45.50868 12.33922 9 ft 1 kts 132°
2026-05-06 06:25 45.50849 12.33952 9 ft 6 kts 131°
2026-05-06 06:25 45.50800 12.34030 9 ft 8 kts 121°
2026-05-06 06:26 45.50775 12.34120 9 ft 11 kts 121°
2026-05-06 06:26 45.50713 12.34225 9 ft 15 kts 131°
2026-05-06 06:26 45.50643 12.34328 9 ft 12 kts 153°
2026-05-06 06:26 45.50556 12.34342 9 ft 13 kts 176°
2026-05-06 06:27 45.50449 12.34346 9 ft 16 kts 178°
2026-05-06 06:27 45.50343 12.34353 9 ft 14 kts 177°
2026-05-06 06:27 45.50258 12.34312 11 ft 10 kts 223°
2026-05-06 06:27 45.50198 12.34234 12 ft 13 kts 221°
2026-05-06 06:28 45.50119 12.34131 13 ft 16 kts 221°
2026-05-06 06:28 45.50020 12.34006 12 ft 20 kts 222°
2026-05-06 06:28 45.49913 12.33869 9 ft 15 kts 232°
2026-05-06 06:28 45.49825 12.33757 9 ft 17 kts 220°
2026-05-06 06:29 45.49733 12.33653 9 ft 15 kts 207°
2026-05-06 06:29 45.49646 12.33573 8 ft 14 kts 223°
2026-05-06 06:29 45.49567 12.33524 6 ft 11 kts 157°
2026-05-06 06:29 45.49536 12.33569 7 ft 0 kts 106°
2026-05-06 06:30 45.49533 12.33575 7 ft 0 kts 129°
2026-05-06 06:30 45.49532 12.33577 7 ft 0 kts 129°
2026-05-06 06:30 45.49522 12.33591 7 ft 5 kts 136°
2026-05-06 06:30 45.49472 12.33661 9 ft 13 kts 134°
2026-05-06 06:31 45.49448 12.33807 9 ft 18 kts 64°
2026-05-06 06:31 45.49672 12.34109 9 ft 78 kts 43°
2026-05-06 06:31 45.50257 12.34853 10 ft 139 kts 43°
2026-05-06 06:31 45.51100 12.35932 259 ft 166 kts 42°
2026-05-06 06:32 45.51959 12.37152 783 ft 175 kts 47°
2026-05-06 06:32 45.52808 12.38442 1438 ft 179 kts 46°
2026-05-06 06:32 45.53709 12.39763 1970 ft 185 kts 45°
2026-05-06 06:32 45.54640 12.41095 2578 ft 186 kts 45°
2026-05-06 06:33 45.55726 12.42136 3111 ft 190 kts 13°
2026-05-06 06:33 45.57027 12.41898 3681 ft 190 kts 332°
2026-05-06 06:33 45.58087 12.40683 4155 ft 198 kts 312°
2026-05-06 06:33 45.59034 12.39140 4622 ft 205 kts 310°
2026-05-06 06:34 45.59725 12.37336 5109 ft 209 kts 278°
2026-05-06 06:34 45.59855 12.35231 5756 ft 206 kts 273°
2026-05-06 06:34 45.59996 12.33036 5949 ft 230 kts 274°
2026-05-06 06:34 45.60149 12.30620 6313 ft 248 kts 274°
2026-05-06 06:35 45.60313 12.27978 6702 ft 266 kts 274°
2026-05-06 06:35 45.60482 12.25274 7358 ft 273 kts 274°
2026-05-06 06:35 45.60663 12.22486 8078 ft 277 kts 274°
2026-05-06 06:35 45.60844 12.19676 8862 ft 279 kts 274°
2026-05-06 06:36 45.61031 12.16874 9637 ft 281 kts 274°
2026-05-06 06:36 45.61243 12.14089 10356 ft 285 kts 275°
2026-05-06 06:36 45.61496 12.11062 10519 ft 310 kts 275°
2026-05-06 06:36 45.61740 12.07891 10921 ft 324 kts 274°
2026-05-06 06:37 45.61981 12.04659 11664 ft 327 kts 274°
2026-05-06 06:37 45.62201 12.01415 12419 ft 328 kts 271°
2026-05-06 06:37 45.62449 11.98116 13156 ft 333 kts 278°
2026-05-06 06:37 45.63177 11.94928 13880 ft 342 kts 291°
2026-05-06 06:38 45.64496 11.92012 14635 ft 351 kts 306°
2026-05-06 06:38 45.66364 11.89613 15345 ft 362 kts 319°
2026-05-06 06:38 45.68462 11.87583 16034 ft 367 kts 321°
2026-05-06 06:38 45.70620 11.85530 16666 ft 372 kts 321°
2026-05-06 06:39 45.72885 11.83605 17333 ft 379 kts 327°
2026-05-06 06:39 45.75266 11.81899 17971 ft 384 kts 328°
2026-05-06 06:39 45.77699 11.80208 18566 ft 388 kts 329°
2026-05-06 06:39 45.80166 11.78496 19142 ft 393 kts 329°
2026-05-06 06:40 45.82666 11.76762 19729 ft 397 kts 329°
2026-05-06 06:40 45.85195 11.75005 20290 ft 401 kts 329°
2026-05-06 06:40 45.87767 11.73222 20829 ft 406 kts 329°
2026-05-06 06:40 45.90306 11.71358 21348 ft 407 kts 323°
2026-05-06 06:41 45.92643 11.68958 21866 ft 404 kts 313°
2026-05-06 06:41 45.94485 11.65985 22361 ft 397 kts 298°
2026-05-06 06:41 45.95850 11.62500 22903 ft 394 kts 291°
2026-05-06 06:41 45.97091 11.58864 23377 ft 398 kts 290°
2026-05-06 06:42 45.98323 11.55213 23832 ft 402 kts 290°
2026-05-06 06:42 45.99555 11.51563 24290 ft 406 kts 290°
2026-05-06 06:42 46.00814 11.47834 24895 ft 406 kts 290°
2026-05-06 06:42 46.02064 11.44128 25348 ft 409 kts 290°
2026-05-06 06:43 46.03319 11.40397 25867 ft 410 kts 290°
2026-05-06 06:43 46.04567 11.36688 26368 ft 411 kts 290°
2026-05-06 06:43 46.05823 11.32948 26870 ft 411 kts 289°
2026-05-06 06:43 46.07069 11.29231 27327 ft 413 kts 289°
2026-05-06 06:44 46.08339 11.25440 27774 ft 415 kts 289°
2026-05-06 06:44 46.09599 11.21669 28234 ft 416 kts 289°
2026-05-06 06:44 46.10858 11.17899 28639 ft 417 kts 289°
2026-05-06 06:44 46.12132 11.14079 29076 ft 418 kts 289°
2026-05-06 06:45 46.13393 11.10297 29609 ft 416 kts 289°
2026-05-06 06:45 46.14666 11.06477 30151 ft 413 kts 289°
2026-05-06 06:45 46.15907 11.02746 30630 ft 411 kts 288°
2026-05-06 06:45 46.17163 10.98963 31117 ft 410 kts 288°
2026-05-06 06:46 46.18388 10.95269 31586 ft 408 kts 288°
2026-05-06 06:46 46.19643 10.91472 32030 ft 407 kts 288°
2026-05-06 06:46 46.20860 10.87793 32478 ft 405 kts 287°
2026-05-06 06:46 46.22080 10.84089 32878 ft 404 kts 287°
2026-05-06 06:47 46.23288 10.80407 33296 ft 402 kts 287°
2026-05-06 06:47 46.24489 10.76739 33646 ft 402 kts 287°
2026-05-06 06:47 46.25705 10.73018 34049 ft 401 kts 287°
2026-05-06 06:47 46.26891 10.69374 34367 ft 401 kts 287°
2026-05-06 06:48 46.28097 10.65658 34668 ft 402 kts 287°
2026-05-06 06:48 46.29281 10.62005 34995 ft 402 kts 287°
2026-05-06 06:48 46.30479 10.58318 35302 ft 402 kts 287°
2026-05-06 06:48 46.31694 10.54570 35582 ft 403 kts 288°
2026-05-06 06:49 46.32877 10.50916 35842 ft 404 kts 288°
2026-05-06 06:49 46.35310 10.43394 35908 ft 405 kts 288°
2026-05-06 06:50 46.37695 10.36023 35912 ft 399 kts 288°
2026-05-06 06:50 46.40044 10.28712 35912 ft 399 kts 287°
2026-05-06 06:51 46.42408 10.21331 35912 ft 400 kts 287°
2026-05-06 06:51 46.44771 10.13943 35911 ft 401 kts 287°
2026-05-06 06:52 46.47276 10.06607 35912 ft 406 kts 291°
2026-05-06 06:52 46.50620 9.99889 35907 ft 417 kts 302°
2026-05-06 06:53 46.54484 9.93436 35898 ft 419 kts 303°
2026-05-06 06:53 46.58371 9.87011 35890 ft 420 kts 303°
2026-05-06 06:54 46.62251 9.80597 35884 ft 420 kts 303°
2026-05-06 06:54 46.66124 9.74179 35885 ft 420 kts 303°
2026-05-06 06:55 46.70015 9.67716 35885 ft 420 kts 303°
2026-05-06 06:55 46.73892 9.61262 35882 ft 420 kts 304°
2026-05-06 06:56 46.77776 9.54784 35868 ft 422 kts 304°
2026-05-06 06:56 46.81667 9.48283 35855 ft 422 kts 304°
2026-05-06 06:57 46.85572 9.41739 35841 ft 422 kts 304°
2026-05-06 06:57 46.89478 9.35176 35830 ft 423 kts 304°
2026-05-06 06:58 46.93367 9.28628 35830 ft 423 kts 303°
2026-05-06 06:58 46.97267 9.22047 35831 ft 422 kts 304°
2026-05-06 06:59 47.01172 9.15440 35831 ft 423 kts 304°
2026-05-06 06:59 47.05077 9.08815 35831 ft 424 kts 304°
2026-05-06 07:00 47.08979 9.02180 35830 ft 424 kts 304°
2026-05-06 07:00 47.12838 8.95568 35830 ft 422 kts 302°
2026-05-06 07:01 47.16112 8.88393 35829 ft 412 kts 289°
2026-05-06 07:01 47.18270 8.80573 35830 ft 409 kts 285°
2026-05-06 07:02 47.20287 8.72675 35830 ft 410 kts 285°
2026-05-06 07:02 47.22313 8.64700 35830 ft 410 kts 285°
2026-05-06 07:03 47.24318 8.56780 35831 ft 411 kts 285°
2026-05-06 07:03 47.26319 8.48838 35831 ft 411 kts 285°
2026-05-06 07:04 47.28340 8.40825 35831 ft 412 kts 285°
2026-05-06 07:04 47.30342 8.32850 35831 ft 413 kts 284°
2026-05-06 07:05 47.32339 8.24838 35830 ft 413 kts 284°
2026-05-06 07:05 47.34328 8.16827 35831 ft 413 kts 284°
2026-05-06 07:06 47.36318 8.08789 35831 ft 413 kts 284°
2026-05-06 07:06 47.38300 8.00746 35831 ft 414 kts 285°
2026-05-06 07:07 47.40283 7.92655 35832 ft 417 kts 285°
2026-05-06 07:07 47.42283 7.84491 35830 ft 418 kts 285°
2026-05-06 07:08 47.44268 7.76366 35830 ft 416 kts 285°
2026-05-06 07:08 47.46247 7.68223 35831 ft 416 kts 284°
2026-05-06 07:09 47.47794 7.60002 35832 ft 413 kts 279°
2026-05-06 07:09 47.49165 7.51721 35831 ft 413 kts 279°
2026-05-06 07:10 47.50543 7.43399 35831 ft 413 kts 279°
2026-05-06 07:10 47.51927 7.35024 35831 ft 413 kts 279°
2026-05-06 07:11 47.53309 7.26627 35830 ft 413 kts 279°
2026-05-06 07:11 47.54672 7.18313 35831 ft 413 kts 279°
2026-05-06 07:12 47.56036 7.09952 35831 ft 413 kts 279°
2026-05-06 07:12 47.57396 7.01590 35831 ft 414 kts 279°
2026-05-06 07:13 47.58748 6.93220 35831 ft 415 kts 279°
2026-05-06 07:13 47.60108 6.84771 35830 ft 415 kts 279°
2026-05-06 07:14 47.61459 6.76333 35831 ft 416 kts 279°
2026-05-06 07:14 47.62806 6.67893 35831 ft 417 kts 279°
2026-05-06 07:15 47.64140 6.59471 35831 ft 417 kts 279°
2026-05-06 07:15 47.65485 6.50953 35831 ft 417 kts 279°
2026-05-06 07:16 47.66814 6.42479 35830 ft 418 kts 279°
2026-05-06 07:16 47.68146 6.33945 35831 ft 419 kts 279°
2026-05-06 07:17 47.69602 6.25456 35830 ft 421 kts 283°
2026-05-06 07:17 47.71422 6.17069 35830 ft 421 kts 284°
2026-05-06 07:18 47.73223 6.08733 35831 ft 421 kts 284°
2026-05-06 07:18 47.75015 6.00329 35831 ft 422 kts 284°
2026-05-06 07:19 47.76796 5.91893 35831 ft 422 kts 284°
2026-05-06 07:19 47.78558 5.83505 35830 ft 422 kts 284°
2026-05-06 07:20 47.80328 5.75033 35831 ft 422 kts 284°
2026-05-06 07:20 47.82079 5.66614 35831 ft 422 kts 284°
2026-05-06 07:21 47.83829 5.58154 35831 ft 422 kts 284°
2026-05-06 07:21 47.85568 5.49712 35828 ft 421 kts 284°
2026-05-06 07:22 47.87307 5.41222 35826 ft 422 kts 284°
2026-05-06 07:22 47.89041 5.32738 35823 ft 422 kts 283°
2026-05-06 07:23 47.91360 5.24525 35817 ft 428 kts 297°
2026-05-06 07:23 47.95117 5.17466 35817 ft 433 kts 309°
2026-05-06 07:24 47.99221 5.10727 35806 ft 433 kts 309°
2026-05-06 07:24 48.03325 5.03945 35804 ft 435 kts 309°
2026-05-06 07:25 48.07477 4.97086 35809 ft 436 kts 310°
2026-05-06 07:25 48.11591 4.90271 35817 ft 436 kts 310°
2026-05-06 07:26 48.15686 4.83460 35825 ft 435 kts 310°
2026-05-06 07:26 48.19764 4.76656 35831 ft 435 kts 310°
2026-05-06 07:27 48.23860 4.69802 35831 ft 435 kts 310°
2026-05-06 07:27 48.27920 4.62995 35831 ft 435 kts 310°
2026-05-06 07:28 48.32023 4.56096 35831 ft 435 kts 310°
2026-05-06 07:28 48.38123 4.45796 35831 ft 435 kts 310°
2026-05-06 07:29 48.42180 4.38929 35831 ft 435 kts 310°
2026-05-06 07:29 48.46273 4.31981 35831 ft 435 kts 309°
2026-05-06 07:30 48.50306 4.25114 35830 ft 434 kts 309°
2026-05-06 07:30 48.54391 4.18145 35831 ft 434 kts 309°
2026-05-06 07:31 48.58440 4.11217 35831 ft 434 kts 309°
2026-05-06 07:31 48.62477 4.04292 35833 ft 435 kts 309°
2026-05-06 07:32 48.66530 3.97317 35841 ft 435 kts 310°
2026-05-06 07:32 48.70614 3.90403 35848 ft 435 kts 313°
2026-05-06 07:33 48.75232 3.84345 35858 ft 436 kts 322°
2026-05-06 07:33 48.80206 3.78762 35858 ft 437 kts 323°
2026-05-06 07:34 48.85139 3.73311 35858 ft 438 kts 323°
2026-05-06 07:34 48.90109 3.67833 35857 ft 438 kts 323°
2026-05-06 07:35 48.95114 3.62316 35857 ft 438 kts 323°
2026-05-06 07:35 49.00102 3.56776 35857 ft 438 kts 323°
2026-05-06 07:36 49.05042 3.51221 35858 ft 438 kts 323°
2026-05-06 07:36 49.10016 3.45654 35858 ft 438 kts 323°
2026-05-06 07:37 49.14970 3.40188 35858 ft 439 kts 324°
2026-05-06 07:37 49.20027 3.34704 35858 ft 439 kts 324°
2026-05-06 07:38 49.25078 3.29292 35858 ft 439 kts 324°
2026-05-06 07:38 49.30123 3.23867 35857 ft 438 kts 324°
2026-05-06 07:39 49.35139 3.18403 35858 ft 438 kts 323°
2026-05-06 07:39 49.40147 3.12838 35858 ft 438 kts 323°
2026-05-06 07:40 49.45087 3.07217 35862 ft 438 kts 322°
2026-05-06 07:40 49.50000 3.01505 35868 ft 438 kts 322°
2026-05-06 07:41 49.54909 2.95736 35874 ft 438 kts 322°
2026-05-06 07:41 49.59871 2.89970 35881 ft 438 kts 322°
2026-05-06 07:42 49.64813 2.84275 35885 ft 439 kts 323°
2026-05-06 07:42 49.69753 2.78598 35884 ft 438 kts 323°
2026-05-06 07:43 49.74711 2.72904 35885 ft 437 kts 323°
2026-05-06 07:43 49.79673 2.67252 35885 ft 439 kts 324°
2026-05-06 07:44 49.84721 2.61664 35884 ft 438 kts 324°
2026-05-06 07:44 49.89739 2.56096 35884 ft 437 kts 324°
2026-05-06 07:45 49.94788 2.50476 35885 ft 438 kts 324°
2026-05-06 07:45 49.99802 2.44876 35885 ft 438 kts 324°
2026-05-06 07:46 50.04840 2.39235 35884 ft 438 kts 324°
2026-05-06 07:46 50.09845 2.33614 35885 ft 438 kts 323°
2026-05-06 07:47 50.14862 2.27966 35885 ft 438 kts 323°
2026-05-06 07:47 50.19871 2.22312 35885 ft 438 kts 323°
2026-05-06 07:48 50.24864 2.16660 35885 ft 438 kts 323°
2026-05-06 07:48 50.29881 2.10966 35896 ft 438 kts 323°
2026-05-06 07:49 50.34860 2.05301 35905 ft 438 kts 323°
2026-05-06 07:49 50.39776 1.99352 35911 ft 438 kts 319°
2026-05-06 07:50 50.44390 1.92992 35912 ft 437 kts 318°
2026-05-06 07:50 50.49041 1.86578 35912 ft 437 kts 318°
2026-05-06 07:51 50.53664 1.80218 35912 ft 437 kts 318°
2026-05-06 07:51 50.58326 1.73804 35912 ft 437 kts 318°
2026-05-06 07:52 50.62961 1.67419 35912 ft 436 kts 318°
2026-05-06 07:52 50.67580 1.61040 35912 ft 436 kts 318°
2026-05-06 07:53 50.72208 1.54629 35912 ft 436 kts 318°
2026-05-06 07:53 50.76845 1.48245 35912 ft 435 kts 319°
2026-05-06 07:54 50.81501 1.41945 35912 ft 436 kts 319°
2026-05-06 07:54 50.86199 1.35649 35912 ft 436 kts 319°
2026-05-06 07:55 50.90882 1.29339 35914 ft 435 kts 318°
2026-05-06 07:55 50.95550 1.22949 35923 ft 435 kts 317°
2026-05-06 07:56 51.00163 1.16500 35933 ft 434 kts 317°
2026-05-06 07:56 51.04726 1.09979 35948 ft 434 kts 316°
2026-05-06 07:57 51.09198 1.03272 35956 ft 434 kts 313°
2026-05-06 07:57 51.13502 0.96320 35963 ft 433 kts 313°
2026-05-06 07:58 51.17796 0.89383 35966 ft 433 kts 313°
2026-05-06 07:58 51.22127 0.82476 35966 ft 433 kts 314°
2026-05-06 07:59 51.26487 0.75609 35966 ft 433 kts 314°
2026-05-06 07:59 51.30854 0.68737 35966 ft 433 kts 314°
2026-05-06 08:00 51.35219 0.61863 35966 ft 432 kts 314°
2026-05-06 08:00 51.39539 0.55053 35966 ft 432 kts 314°
2026-05-06 08:01 51.43872 0.48202 35966 ft 432 kts 314°
2026-05-06 08:01 51.48192 0.41358 35966 ft 432 kts 314°
2026-05-06 08:02 51.52526 0.34468 35966 ft 432 kts 313°
2026-05-06 08:02 51.56864 0.27558 35972 ft 431 kts 313°
2026-05-06 08:03 51.61141 0.20723 35979 ft 431 kts 313°
2026-05-06 08:03 51.65451 0.13806 35986 ft 431 kts 312°
2026-05-06 08:04 51.69700 0.06843 35993 ft 431 kts 312°
2026-05-06 08:04 51.73943 -0.00144 35993 ft 430 kts 312°
2026-05-06 08:05 51.78106 -0.07082 35992 ft 425 kts 314°
2026-05-06 08:05 51.82285 -0.14011 35992 ft 420 kts 314°
2026-05-06 08:06 51.86407 -0.20817 35994 ft 422 kts 314°
2026-05-06 08:06 51.90584 -0.27736 35992 ft 423 kts 314°
2026-05-06 08:07 51.94753 -0.34674 35992 ft 423 kts 314°
2026-05-06 08:07 51.98886 -0.41578 35993 ft 422 kts 314°
2026-05-06 08:08 52.03054 -0.48540 35982 ft 419 kts 313°
2026-05-06 08:08 52.05076 -0.51936 35391 ft 415 kts 313°
2026-05-06 08:08 52.07123 -0.55392 34393 ft 413 kts 313°
2026-05-06 08:09 52.09103 -0.58735 33705 ft 406 kts 314°
2026-05-06 08:09 52.11072 -0.62060 32820 ft 402 kts 314°
2026-05-06 08:09 52.12991 -0.65300 32443 ft 396 kts 313°
2026-05-06 08:09 52.14911 -0.68549 31803 ft 397 kts 313°
2026-05-06 08:10 52.16852 -0.71839 31264 ft 395 kts 313°
2026-05-06 08:10 52.18750 -0.75059 30783 ft 391 kts 313°
2026-05-06 08:10 52.20646 -0.78278 30307 ft 387 kts 313°
2026-05-06 08:10 52.22549 -0.81444 29820 ft 384 kts 315°
2026-05-06 08:11 52.24521 -0.84382 29332 ft 382 kts 319°
2026-05-06 08:11 52.26702 -0.86959 28869 ft 379 kts 325°
2026-05-06 08:11 52.28941 -0.89283 28407 ft 376 kts 326°
2026-05-06 08:11 52.31196 -0.91570 27948 ft 373 kts 326°
2026-05-06 08:12 52.33404 -0.93793 27496 ft 370 kts 326°
2026-05-06 08:12 52.35624 -0.96021 27048 ft 366 kts 326°
2026-05-06 08:12 52.37806 -0.98212 26604 ft 363 kts 326°
2026-05-06 08:12 52.39970 -1.00380 26171 ft 360 kts 326°
2026-05-06 08:13 52.42157 -1.02573 25732 ft 357 kts 326°
2026-05-06 08:13 52.44274 -1.04699 25306 ft 354 kts 326°
2026-05-06 08:13 52.46385 -1.06816 24881 ft 351 kts 326°
2026-05-06 08:13 52.48522 -1.08964 24448 ft 348 kts 326°
2026-05-06 08:14 52.50580 -1.11032 24029 ft 346 kts 326°
2026-05-06 08:14 52.52645 -1.13112 23611 ft 343 kts 326°
2026-05-06 08:14 52.54709 -1.15192 23194 ft 340 kts 326°
2026-05-06 08:14 52.56760 -1.17264 22777 ft 338 kts 326°
2026-05-06 08:15 52.58758 -1.19283 22371 ft 335 kts 326°
2026-05-06 08:15 52.60763 -1.21307 21965 ft 333 kts 326°
2026-05-06 08:15 52.62776 -1.23342 21550 ft 330 kts 326°
2026-05-06 08:15 52.64733 -1.25322 21148 ft 328 kts 326°
2026-05-06 08:16 52.66710 -1.27326 20743 ft 326 kts 326°
2026-05-06 08:16 52.68660 -1.29306 20340 ft 324 kts 326°
2026-05-06 08:16 52.70587 -1.31262 20038 ft 322 kts 326°
2026-05-06 08:16 52.72519 -1.33223 19913 ft 318 kts 326°
2026-05-06 08:17 52.74401 -1.35139 19380 ft 319 kts 326°
2026-05-06 08:17 52.76322 -1.37102 18959 ft 317 kts 326°
2026-05-06 08:17 52.78221 -1.39040 18560 ft 315 kts 326°
2026-05-06 08:17 52.80079 -1.40938 18172 ft 313 kts 326°
2026-05-06 08:18 52.81973 -1.42874 17779 ft 311 kts 326°
2026-05-06 08:18 52.83828 -1.44775 17400 ft 309 kts 326°
2026-05-06 08:18 52.85650 -1.46644 17019 ft 307 kts 326°
2026-05-06 08:18 52.87488 -1.48529 16632 ft 305 kts 326°
2026-05-06 08:19 52.89323 -1.50416 16248 ft 303 kts 326°
2026-05-06 08:19 52.91114 -1.52257 15874 ft 301 kts 326°
2026-05-06 08:19 52.92916 -1.54109 15497 ft 298 kts 326°
2026-05-06 08:19 52.94669 -1.55916 15128 ft 296 kts 327°
2026-05-06 08:20 52.96453 -1.57754 14755 ft 294 kts 327°
2026-05-06 08:20 52.98204 -1.59560 14389 ft 292 kts 327°
2026-05-06 08:20 52.99951 -1.61363 14018 ft 290 kts 327°
2026-05-06 08:20 53.01688 -1.63161 13651 ft 288 kts 327°
2026-05-06 08:21 53.03395 -1.64925 13294 ft 286 kts 327°
2026-05-06 08:21 53.05085 -1.66743 12927 ft 284 kts 321°
2026-05-06 08:21 53.06508 -1.69042 12564 ft 281 kts 310°
2026-05-06 08:21 53.07802 -1.71569 12198 ft 279 kts 309°
2026-05-06 08:22 53.09061 -1.74049 11835 ft 277 kts 309°
2026-05-06 08:22 53.10269 -1.76417 11488 ft 276 kts 310°
2026-05-06 08:22 53.11533 -1.78882 11129 ft 274 kts 310°
2026-05-06 08:22 53.12782 -1.81313 10775 ft 273 kts 310°
2026-05-06 08:23 53.14016 -1.83713 10423 ft 272 kts 311°
2026-05-06 08:23 53.15254 -1.86123 10083 ft 270 kts 311°
2026-05-06 08:23 53.16460 -1.88471 9956 ft 260 kts 311°
2026-05-06 08:23 53.17636 -1.90760 9653 ft 258 kts 311°
2026-05-06 08:24 53.18797 -1.93027 9284 ft 250 kts 311°
2026-05-06 08:24 53.19929 -1.95241 8983 ft 247 kts 312°
2026-05-06 08:24 53.21061 -1.97447 8674 ft 250 kts 312°
2026-05-06 08:24 53.22206 -1.99682 8349 ft 252 kts 312°
2026-05-06 08:25 53.23264 -2.02035 8059 ft 252 kts 298°
2026-05-06 08:25 53.23666 -2.04889 8013 ft 253 kts 269°
2026-05-06 08:25 53.23203 -2.07774 7851 ft 263 kts 244°
2026-05-06 08:25 53.22247 -2.10428 7666 ft 260 kts 239°
2026-05-06 08:26 53.21279 -2.12973 7467 ft 258 kts 239°
2026-05-06 08:26 53.20305 -2.15534 7276 ft 257 kts 239°
2026-05-06 08:26 53.19325 -2.18110 7083 ft 257 kts 239°
2026-05-06 08:26 53.18373 -2.20616 6888 ft 253 kts 239°
2026-05-06 08:27 53.17416 -2.23135 6660 ft 250 kts 239°
2026-05-06 08:27 53.16479 -2.25603 6417 ft 247 kts 239°
2026-05-06 08:27 53.15575 -2.28076 6172 ft 244 kts 246°
2026-05-06 08:27 53.15149 -2.30779 5920 ft 234 kts 267°
2026-05-06 08:28 53.15048 -2.33453 5719 ft 221 kts 269°
2026-05-06 08:28 53.14968 -2.35998 5463 ft 211 kts 269°
2026-05-06 08:28 53.14890 -2.38432 5192 ft 205 kts 269°
2026-05-06 08:28 53.14810 -2.40815 4836 ft 203 kts 269°
2026-05-06 08:29 53.14728 -2.43181 4466 ft 203 kts 269°
2026-05-06 08:29 53.14869 -2.45544 4052 ft 200 kts 296°
2026-05-06 08:29 53.15645 -2.47394 3757 ft 189 kts 318°
2026-05-06 08:29 53.16569 -2.48974 3487 ft 187 kts 319°
2026-05-06 08:30 53.17492 -2.50539 3530 ft 184 kts 319°
2026-05-06 08:30 53.18406 -2.52083 3485 ft 183 kts 320°
2026-05-06 08:30 53.19420 -2.53288 3446 ft 173 kts 346°
2026-05-06 08:30 53.20579 -2.53297 3156 ft 162 kts 20°
2026-05-06 08:31 53.21625 -2.52668 2991 ft 154 kts 24°
2026-05-06 08:31 53.22647 -2.51998 3010 ft 156 kts 29°
2026-05-06 08:31 53.23517 -2.50896 2996 ft 156 kts 47°
2026-05-06 08:31 53.24231 -2.49520 2982 ft 155 kts 51°
2026-05-06 08:32 53.24932 -2.48083 2845 ft 159 kts 51°
2026-05-06 08:32 53.25628 -2.46654 2651 ft 151 kts 51°
2026-05-06 08:32 53.26268 -2.45338 2440 ft 140 kts 51°
2026-05-06 08:32 53.26870 -2.44102 2236 ft 134 kts 51°
2026-05-06 08:33 53.27473 -2.42862 2071 ft 136 kts 51°
2026-05-06 08:33 53.28081 -2.41613 1881 ft 136 kts 51°
2026-05-06 08:33 53.28684 -2.40373 1695 ft 136 kts 51°
2026-05-06 08:33 53.29301 -2.39103 1504 ft 141 kts 52°
2026-05-06 08:34 53.29922 -2.37824 1310 ft 141 kts 52°
2026-05-06 08:34 53.31174 -2.35265 914 ft 140 kts 51°
2026-05-06 08:34 53.31797 -2.33984 729 ft 139 kts 52°
2026-05-06 08:35 53.32410 -2.32718 527 ft 140 kts 52°
2026-05-06 08:35 53.33027 -2.31461 355 ft 138 kts 52°
2026-05-06 08:35 53.33624 -2.30226 260 ft 123 kts 52°
2026-05-06 08:35 53.34014 -2.29387 259 ft 59 kts 51°
2026-05-06 08:36 53.34206 -2.28995 259 ft 35 kts 52°
2026-05-06 08:36 53.34352 -2.28699 259 ft 27 kts 39°
2026-05-06 08:36 53.34490 -2.28544 259 ft 18 kts 27°
2026-05-06 08:36 53.34579 -2.28484 259 ft 11 kts 20°
2026-05-06 08:37 53.34650 -2.28442 259 ft 9 kts 18°
2026-05-06 08:37 53.34705 -2.28403 259 ft 7 kts 36°
2026-05-06 08:37 53.34735 -2.28354 259 ft 4 kts 50°
2026-05-06 08:37 53.34755 -2.28313 259 ft 5 kts 50°
2026-05-06 08:38 53.34792 -2.28235 259 ft 10 kts 52°
2026-05-06 08:38 53.34850 -2.28114 259 ft 15 kts 52°
2026-05-06 08:38 53.34925 -2.27958 259 ft 18 kts 51°
2026-05-06 08:38 53.35005 -2.27786 259 ft 16 kts 49°
2026-05-06 08:39 53.35080 -2.27639 259 ft 17 kts 50°
2026-05-06 08:39 53.35159 -2.27475 259 ft 18 kts 51°
2026-05-06 08:39 53.35242 -2.27304 259 ft 19 kts 52°
2026-05-06 08:39 53.35329 -2.27124 259 ft 18 kts 50°
2026-05-06 08:40 53.35407 -2.26961 259 ft 16 kts 51°
2026-05-06 08:40 53.35475 -2.26824 259 ft 13 kts 51°
2026-05-06 08:40 53.35535 -2.26698 259 ft 14 kts 51°
2026-05-06 08:40 53.35627 -2.26626 259 ft 15 kts 358°
2026-05-06 08:41 53.35732 -2.26653 259 ft 14 kts 350°
2026-05-06 08:41 53.35823 -2.26678 259 ft 12 kts 351°
2026-05-06 08:41 53.35904 -2.26702 259 ft 11 kts 349°
2026-05-06 08:41 53.35983 -2.26738 259 ft 11 kts 331°
2026-05-06 08:42 53.36039 -2.26723 259 ft 4 kts 33°
2026-05-06 08:42 53.36058 -2.26683 259 ft 3 kts 54°
2026-05-06 08:42 53.36074 -2.26642 259 ft 3 kts 52°
2026-05-06 08:42 53.36092 -2.26632 259 ft 2 kts 348°
2026-05-06 08:43 53.36111 -2.26645 259 ft 3 kts 331°
2026-05-06 08:43 53.36130 -2.26665 259 ft 2 kts 327°
2026-05-06 08:43 53.36140 -2.26677 259 ft 0 kts 326°